1st Responders/1st Detectors/Storm Spotters Weather Summary for Warren County, KY

Forecast Maps


Reg. NEXRAD Animation


National Fire Danger: Day 1 & 2 Map

Current NWS Watch/Warnings

SPC Convective Day 1 Outlook


Day 2 Outlook

(Click images to enlarge|Page will refresh every 5 minutes)
UK Ag. Weather Center Desktop Severe Weather Service[HERE]
Warren County, KY Hazardous Weather Outlook Webcast
(9 AM to 9 PM Mon-Fri)
[Fast]
[Dial-up]


UKAWC 1st Detectors/1st Responders Precision Weather Forecast For WARREN County, Kentucky
(based on the NWS County Digital Forecast)

ISSUED AT 08:00 UTC ON MONDAY AUG 20 2018
DAY MONDAY
CDT 3HR 4A 5A 6A 7A 8A 9A 10A 11A NOON 1P 2P 3P 4P 5P 6P
MAX/MIN -- -- -- 72° -- -- -- -- -- -- -- -- -- -- 85°
TEMP 74° 74° 72° 74° 76° 79° 81° 81° 81° 83° 83° 85° 85° 83° 81°
SKY COVER 73% 76% 77% 81% 83% 86% 88% 88% 88% 88% 86% 85% 84% 80% 77%
Clouds
DEW PT 70° 72° 70° 70° 70° 72° 72° 72° 72° 72° 72° 72° 72° 72° 72°
RH 90% 93% 93% 90% 84% 79% 76% 74% 74% 71% 69% 65% 67% 69% 74%
POP 12HR -- -- -- 16% -- -- -- -- -- -- -- -- -- -- --
RAIN/SNOW (liq.equ) -- -- -- 0.05in -- -- -- -- -- 0.39in -- -- -- -- --
SNOWFALL -- -- -- 0in -- -- -- -- -- 0in -- -- -- -- --
WIND SPEED(MPH) 2 5 6 7 7 8 9 9 10 10 10 13 14 14 13
WIND Gust(MPH) 9 10 13 13 13 13 17 17 17 16 16 16 17 17 16
WIND DIR S S S S S S S S S S S S S S S
DEW Hvy Dew Mod Dew Mod Dew Mod Dew Lgt Dew Lgt Dew Lgt Dew Lgt Dew -- -- -- -- -- -- --
HeatIndex 74 74 72 74 76 79 85 87 87 88 90 90 91 90 87
Rain Showers -- -- Slight Chance Likely Definite Definite Likely Likely Likely Likely Chance Chance Chance Chance Chance
Thunder Storm -- -- Slight Chance Chance Chance Chance Chance Chance Chance Chance Chance Chance Chance Chance Chance
WIND CHILL -- -- -- -- -- -- -- -- -- -- -- -- -- -- --
SPRAY COND
DRY COND
LIVESTOCK HEATSTRESS 73.16 73.41 71.49 73.16 74.49 76.67 78.07 77.83 77.83 79.14 78.87 79.96 80.24 78.87 77.83



DAY TUESDAY WEDNESDAY THURSDAY FRIDAY SATURDAY SUNDAY
CDT 6HR 7P 8P 9P 10P 11P MIDN 1A 2A 3A 4A 5A 6A 7A 8A 9A 10A 11A NOON 1P 2P 3P 4P 7P 10P 1A 4A 7A 10A 1P 4P 7P 1A 7A 1P 7P 1A 7A 1P 7P 1A 7A 1P 7P 1A 7A 1P 7P
MAX/MIN -- -- -- -- -- -- -- -- -- -- -- -- 70° -- -- -- -- -- -- -- -- 81° -- -- -- -- 65° -- -- 81° -- -- 58° 81° -- -- 58° 85° -- -- 67° 86° -- -- 67° 88° --
TEMP 79° 79° 76° 76° 76° 74° 74° 72° 72° 72° 70° 70° 72° 74° 76° 77° 79° 81° 81° 81° 81° 81° 77° 70° 67° 65° 65° 74° 79° 79° 76° 65° 59° 79° 76° 63° 61° 83° 81° 70° 70° 85° 83° 72° 68° 86° 81°
SKY COVER 74% 77% 80% 83% 86% 88% 91% 86% 82% 77% 78% 79% 80% 80% 79% 78% 78% 77% 77% 77% 77% 77% 62% 74% 64% 68% 50% 47% 52% 51% 50% 31% 13% 12% 10% 6% 11% 24% 31% 43% 57% 59% 46% 38% 44% 46% 32%
Clouds
DEW PT 72° 72° 72° 72° 72° 70° 70° 70° 70° 68° 68° 68° 70° 70° 68° 68° 68° 68° 68° 68° 67° 67° 67° 67° 67° 65° 65° 65° 65° 63° 61° 59° 58° 58° 59° 58° 58° 63° 65° 65° 65° 68° 68° 67° 67° 70° 70°
RH 78% 82% 84% 84% 87% 87% 90% 93% 93% 90% 93% 93% 90% 87% 78% 73% 68% 67% 64% 64% 64% 64% 71% 90% 96% 99% 96% 75% 60% 58% 61% 84% 92% 50% 55% 84% 90% 51% 60% 83% 84% 59% 62% 81% 93% 59% 69%
POP 12HR 76% -- -- -- -- -- -- -- -- -- -- -- 53% -- -- -- -- -- -- -- -- -- 31% -- -- -- 8% -- -- -- 10% -- 1% -- 0% -- 0% -- 1% -- 4% -- 11% -- 5% -- 32%
RAIN/SNOW (liq.equ) 0.15in -- -- -- -- -- 0.07in -- -- -- -- -- 0.05in -- -- -- -- -- 0.00in -- -- -- 0.00in -- 0.00in -- 0.00in -- 0.00in -- 0.00in -- -- -- -- -- -- -- -- -- -- -- -- -- -- -- --
SNOWFALL 0in -- -- -- -- -- 0in -- -- -- -- -- 0in -- -- -- -- -- 0in -- -- -- 0in -- 0in -- 0in -- 0in -- 0in -- -- -- -- -- -- -- -- -- -- -- -- -- -- -- --
WIND SPEED(MPH) 13 13 13 13 13 14 14 13 10 9 8 8 9 10 10 10 13 13 13 13 13 13 8 6 6 6 6 7 8 8 7 5 5 6 6 5 2 7 7 7 7 7 7 6 5 7 6
WIND DIR S S S S S S S S SW SW SW SW SW SW SW SW SW SW W W W W W W W NW NW N NW NW N NE NE NE NE E E S S S S S S S S SW SE
HeatIndex 84 79 76 76 76 74 74 72 72 72 70 70 72 74 76 77 82 84 85 85 83 83 77 70 67 65 65 74 81 81 76 65 59 79 76 63 61 85 83 70 70 88 86 72 68 92 86
Rain Showers Chance Chance Chance Chance Chance Chance Chance Chance Chance Chance Chance Chance Chance Chance Chance Chance Chance Chance Chance Chance Chance Chance -- -- -- -- -- -- -- -- -- -- -- -- -- -- -- -- -- -- -- -- -- -- Chance Slight Chance --
Thunder Storm Chance Chance Chance Chance Chance Chance Slight Chance Slight Chance Slight Chance -- -- -- Slight Chance Slight Chance Slight Chance Slight Chance Slight Chance Slight Chance Slight Chance Slight Chance Slight Chance Slight Chance -- -- -- -- -- -- -- -- -- -- -- -- -- -- -- -- -- -- -- -- -- -- Slight Chance Slight Chance --
WIND CHILL -- -- -- -- -- -- -- -- -- -- -- -- -- -- -- -- -- -- -- -- -- -- -- -- -- -- -- -- -- -- -- -- -- -- -- -- -- -- -- -- -- -- -- -- -- -- --
SPRAY COND
DRY COND
LIVESTOCK HEATSTRESS 76.56 77.00 74.49 74.49 74.77 72.91 73.16 71.49 71.49 71.27 69.57 69.57 71.27 72.91 73.92 74.30 75.44 76.97 76.60 76.60 76.60 76.60 74.10 69.38 66.82 64.97 64.86 71.91 74.56 74.33 72.31 64.45 58.99 73.44 71.74 62.63 60.88 76.48 76.12 68.95 69.01 79.09 77.94 70.62 67.65 79.87 77.21

Click on individual weather variable above in left-hand column (ie., TEMP, RH, QPF 12HR) to view state forecast maps






NWS 48 Hr. Forecast Maps,

Regional Hourly Observations For WARREN County, Kentucky
Issued at 400 AM EDT MON AUG 20 2018
WESTERN AND SOUTH CENTRAL KENTUCKY
  
CITY           SKY/WX    TMP DP  RH WIND       PRES   REMARKS
PADUCAH        MOCLDY    76  73  91 S6        29.85F                  
HENDERSON      MOCLDY    74  72  93 SE7       29.88F                  
OWENSBORO      FAIR      74  72  93 SE6       29.89F                  
HOPKINSVILLE   FAIR      75  73  95 S6        29.90F                  
BOWLING GREEN  FAIR      76  73  91 SE6       29.92F                  
GLASGOW        FAIR      73  69  87 CALM      29.94F                  


Current NOWCAST not available:
Nowcasts are not issued routinely during fair weather. Only when
precipitation or other significant weather is occuring in this county will these
forecasts be issued. Currently, there is no short term forecast in effect.


Fire Weather Forecast For WARREN County, KY
Provided by the National Weather Service:

Issued at: Mon Aug 20 04:30:59 EDT 2018

430 AM EDT Mon Aug 20 2018 /330 AM CDT Mon Aug 20 2018/

                      Today        Tonight      Tue          

CLOUD COVER           MCldy        MCldy        MCldy        
PRECIP TYPE           tstms        tstms        tstms        
CHANCE PRECIP (%)     70           50           40           
TEMP (24H TREND)      83 (-2)      69 (-3)      81           
RH % (24H TREND)      68 (+7)      99 (0)       64           
20FTWND-VAL/AM(MPH)   S  6                      SW  8        
20FTWND-RDG/PM(MPH)   S  8         S  8         W  9         
PRECIP AMOUNT         0.49         0.22         0.04         
MIXING HGT(FT-AGL/MSL)3717                      5068         
TRANSPORT WND (MPH)   SW 14                     SW 22        
VENT RATE (KT-FT)     52260                     107065       
DISPERSION            Good                      Excellent    
DSI                   SLGT UNSTBL  SLGT UNSTBL  SLGT UNSTBL  
LAL                   3            3            3            
HAINES INDEX          3            3            3            
ADI EARLY             26 FAIR      8 POOR       51 GEN GOOD  
ADI LATE              31 FAIR      7 POOR       62 GOOD      
MAX LVORI EARLY       7            6            7            
MAX LVORI LATE        3            7            3            

REMARKS...ADI IS ATMOSPHERIC DISPERSION INDEX BY LAVDAS.        
LVORI IS LOW VISIBILITY OCCURRENCE RISK INDEX.

.WEDNESDAY...Mostly cloudy. Lows in the mid 60s. Highs in the
upper 70s. West winds around 5 mph. 
.THURSDAY...Mostly clear. Lows in the upper 50s. Highs in the
upper 70s. North winds around 5 mph. 
.FRIDAY...Mostly clear. Lows in the upper 50s. Highs in the mid
80s. South winds up to 5 mph. 
.SATURDAY...Partly cloudy. Lows in the upper 60s. Highs in the
mid 80s. South winds 5 to 10 mph. 
.SUNDAY...Partly cloudy. Lows in the upper 60s. Highs in the
upper 80s. Southwest winds around 5 mph. 

SPC's Fire Weather Web Tool (Excellent!), SPC's Fire Weather Outlooks, NWS Fire Weather WEB, Fire Danger Class Map,
Keetch-Byram Drought Index, ROMAN Web, Haines Index ,
WFAS's 10-hr Dead Fuel Moist., WFAS's 100-hr Dead Fuel Moist., Probablity of Ignition, Visual blackness Map, Palmer Drought Index, HPC's Rainfall Forecast Maps


Hazardous Weather Outlook For WARREN County, Kentucky
340 AM EDT Mon Aug 20 2018 /240 AM CDT Mon Aug 20 2018/

 DAY ONE  Today and Tonight.

Scattered strong thunderstorms are possible this afternoon into tonight
ahead of a low pressure system. The main risks are heavy rainfall and
localized flash flooding. Gusty winds will also be possible from stronger
storms. 

 DAYS TWO THROUGH SEVEN  Tuesday through Sunday.

No hazardous weather is anticipated at this time. 

 SPOTTER INFORMATION STATEMENT  

Spotters should report any high rainfall amounts, flooding, and 
strong wind gusts or damage Monday into Tuesday.

Latest WARREN County, Kentucky Watches, Warnings and Advisories.
Additional Drought Info.: UKAWC Drought Page, Kentucky Drought Watch


7-Day Forecast For WARREN County, KY

TODAY
Showers and chance of thunderstorms. Highs in the mid 80s. South winds 5 to 15 mph. Chance of precipitation 80 percent.

TONIGHT
Mostly cloudy with a 50 percent chance of showers and thunderstorms. Lows in the lower 70s. South winds 10 to 15 mph.

TUESDAY
Mostly cloudy with chance of showers and slight chance of thunderstorms. Highs in the lower 80s. Southwest winds 10 to 15 mph. Chance of precipitation 50 percent.

TUESDAY NIGHT
Partly cloudy. Lows in the mid 60s. West winds 5 to 10 mph.

WEDNESDAY
Partly cloudy. Highs around 80. Northwest winds 5 to 10 mph.

WEDNESDAY NIGHT
Partly cloudy. Lows in the upper 50s.

THURSDAY
Mostly sunny. Highs around 80.

THURSDAY NIGHT
Mostly clear. Lows in the upper 50s.

FRIDAY
Mostly sunny. Highs in the mid 80s.

FRIDAY NIGHT
Partly cloudy. Lows in the upper 60s.

SATURDAY
Partly cloudy with a 20 percent chance of showers and thunderstorms. Highs in the upper 80s.

SATURDAY NIGHT
Partly cloudy. Lows in the upper 60s.

SUNDAY
Partly cloudy. Highs in the upper 80s.

Ag Weather Center, Department of Biosystems & Agricultural Engineering, University of Kentucky